星链-34546 (STARLINK-34546)

导读

STARLINK-34546是美国SpaceX星链星座的卫星,于2025年6月28日发射升空,属于Starlink Gen2系列,该系列旨在为全球提供高速低延迟卫星互联网服务。星链系统通过近地轨道卫星组网,持续补网扩容,该卫星的入轨进一步扩充了星座规模,提升星座覆盖能力与服务稳定性。

Basic Information
目录编号:
64718
目录名称:
STARLINK-34546
国际标识:
2025-142Y
轨道中心:
EARTH
卫星名称:
星链-34546
卫星全名:
星链-34546 (STARLINK-34546)
卫星状态:
在轨 (已飞行351 天)
发射日期:
2025-06-28 UTC
国别 :
美国 (US)
星等 :
--
Orbit Information
数据来源 国际轨道数据 AOE轨道数据
星历时间 2026-06-14T05:09:58+0800
3小时前
查看轨道信息
2026-06-12T01:00:00+0800
2天前
查看轨道信息
半长轴 6950.183km 6950.196km
偏心率 0.0002772 0.0002497
轨道倾角 70.002° 69.999°
近地点辐角 270.265° 268.163°
升交点赤经 71.752° 77.229°
平近点角 89.819° 250.944°
近地点 570.119km 570.323km
远地点 573.973km 573.795km
周期 96.107分钟 96.107分钟
每日圈数 14.983333 14.983291
Detailed Information
固有亮度:
5
最大亮度:
2.5
卫星平台:
Starlink V1.0
覆盖范围:
全球
运营商:
太空探索技术公司
运营商所在国:
美国
制造商(研发单位):
太空探索技术公司
制造商所在国:
美国
使用方式:
暂无
Satellite Introduction
Starlink 计划是 SpaceX 推出的全球卫星互联网项目,通过发射低轨道卫星,为全球尤其是偏远地区提供高速、低延迟的互联网服务。自 2019 年起,Starlink 已部署数千颗卫星,旨在缩小全球数字鸿沟,推动互联网普及。该项目还为军事、航空等行业提供通信支持,带来广泛经济效益。
2D Orbit Map
3D Orbit Map
Orbit Altitude Analysis Chart
Orbit Inclination Analysis Chart
Orbit Comprehensive Analysis Chart
View Comprehensive Chart